K7AZ Weather Reports


time (UTC)temp
C
wind
direction
speed
KPH
gust
KPH
rain 1hr
cm
rain 24hr
cm
rain mn
cm
humidity
%
barometer
mb
20260502170115 11 245 0.0 0.0 0.00 0.00 0.00 73 1013.0
20260502164051 11 116 0.0 0.0 0.00 0.00 0.00 73 1013.0
20260502163545 11 38 0.0 0.0 0.00 0.00 0.00 73 1013.0
20260502163039 11 102 0.0 0.0 0.00 0.00 0.00 73 1012.9
20260502162533 11 111 0.0 0.0 0.00 0.00 0.00 72 1013.0
20260502162027 11 107 0.0 0.0 0.00 0.00 0.00 72 1013.0
20260502161521 11 92 0.0 0.0 0.00 0.00 0.00 72 1013.0
20260502161015 11 110 0.0 0.0 0.00 0.00 0.00 72 1012.9
20260502160509 11 119 0.0 0.0 0.00 0.00 0.00 72 1012.8
20260502151915 10 102 0.0 0.0 0.00 0.00 0.00 72 1012.8
20260502151409 10 225 0.0 0.0 0.00 0.00 0.00 72 1012.8
20260502150903 10 142 0.0 0.0 0.00 0.00 0.00 72 1012.8
20260502150357 10 98 0.0 0.0 0.00 0.00 0.00 72 1012.8
20260502130639 8 288 4.8 0.0 0.00 0.00 0.00 72 1012.0
20260502130133 8 293 3.2 0.0 0.00 0.00 0.00 72 1011.9
20260502123603 8 276 8.0 17.7 0.00 0.00 0.00 72 1012.1
20260502123057 8 262 3.2 0.0 0.00 0.00 0.00 72 1012.0
20260502122551 8 274 4.8 0.0 0.00 0.00 0.00 72 1012.0
20260502122045 8 270 3.2 0.0 0.00 0.00 0.00 72 1012.0
20260502121539 8 201 0.0 0.0 0.00 0.00 0.00 72 1012.0
20260502121033 8 274 6.4 0.0 0.00 0.00 0.00 72 1012.0
20260502120527 8 282 9.7 0.0 0.00 0.00 0.00 72 1012.0
20260502115515 8 281 6.4 0.0 0.00 0.00 0.00 72 1011.9
20260502115009 8 285 6.4 0.0 0.00 0.00 0.00 72 1011.8
20260502114503 8 276 4.8 0.0 0.00 0.00 0.00 72 1011.8
20260502113957 8 286 6.4 0.0 0.00 0.00 0.00 72 1011.9
20260502113451 8 285 6.4 0.0 0.00 0.00 0.00 72 1011.8
20260502112945 8 273 3.2 19.3 0.00 0.00 0.00 73 1011.8
20260502112439 8 283 9.7 19.3 0.00 0.00 0.00 73 1011.9
20260502111933 8 270 6.4 0.0 0.00 0.00 0.00 73 1011.9
20260502111427 8 281 6.4 17.7 0.00 0.00 0.00 73 1011.9
20260502110921 8 278 9.7 17.7 0.00 0.00 0.00 73 1011.8
20260502110415 8 278 6.4 0.0 0.00 0.00 0.00 73 1011.8
20260502105909 8 278 6.4 17.7 0.00 0.00 0.00 73 1011.8
20260502105403 8 277 8.0 17.7 0.00 0.00 0.00 73 1011.8
20260502104857 8 291 8.0 0.0 0.00 0.00 0.00 73 1011.7
20260502104351 9 285 4.8 0.0 0.00 0.00 0.00 73 1011.8
20260502103845 9 290 1.6 0.0 0.00 0.00 0.00 73 1011.8
20260502103339 9 291 1.6 0.0 0.00 0.00 0.00 73 1011.8
20260502102833 9 288 6.4 0.0 0.00 0.00 0.00 73 1011.7
20260502102327 9 290 4.8 0.0 0.00 0.00 0.00 73 1011.7
20260502101821 9 276 6.4 0.0 0.00 0.00 0.00 73 1011.6
20260502101315 9 288 6.4 0.0 0.00 0.00 0.00 73 1011.6
20260502100809 9 297 3.2 0.0 0.00 0.00 0.00 73 1011.6
20260502100303 9 297 3.2 0.0 0.00 0.00 0.00 73 1011.6
20260502091203 9 290 4.8 0.0 0.00 0.00 0.00 73 1011.6
20260502090657 8 293 8.0 0.0 0.00 0.00 0.00 73 1011.7
20260502090151 8 300 3.2 0.0 0.00 0.00 0.00 73 1011.7
20260502071445 9 315 3.2 0.0 0.00 0.00 0.00 73 1012.2
20260502070939 9 305 3.2 0.0 0.00 0.00 0.00 73 1012.3
20260502070433 9 315 4.8 0.0 0.00 0.00 0.00 73 1012.3
20260502065927 9 313 1.6 0.0 0.00 0.00 0.00 73 1012.4
20260502065421 9 322 4.8 0.0 0.00 0.00 0.00 73 1012.4
20260502064915 9 321 1.6 0.0 0.00 0.00 0.00 73 1012.4
20260502064409 9 323 3.2 0.0 0.00 0.00 0.00 73 1012.4
20260502063903 9 317 6.4 0.0 0.00 0.00 0.00 73 1012.5
20260502063357 9 309 4.8 19.3 0.00 0.00 0.00 73 1012.5
20260502062851 9 290 8.0 19.3 0.00 0.00 0.00 73 1012.5
20260502062345 9 306 4.8 0.0 0.00 0.00 0.00 73 1012.5
20260502061839 9 302 6.4 0.0 0.00 0.00 0.00 73 1012.6
20260502061333 9 296 8.0 0.0 0.00 0.00 0.00 73 1012.6
20260502060827 9 302 9.7 0.0 0.00 0.00 0.00 73 1012.5
20260502060321 9 314 8.0 0.0 0.00 0.00 0.00 73 1012.6
20260502055815 9 306 6.4 17.7 0.00 0.00 0.00 73 1012.7
20260502055309 9 292 9.7 20.9 0.00 0.00 0.00 73 1012.7
20260502054803 9 293 11.3 20.9 0.00 0.00 0.00 73 1012.7
20260502054257 9 298 6.4 22.5 0.00 0.00 0.00 74 1012.7
20260502053751 9 298 9.7 22.5 0.00 0.00 0.00 74 1012.7
20260502053245 9 290 11.3 22.5 0.00 0.00 0.00 74 1012.7
20260502052739 9 291 9.7 19.3 0.00 0.00 0.00 74 1012.7
20260502052233 9 296 12.9 19.3 0.00 0.00 0.00 74 1012.7
20260502051727 9 297 6.4 0.0 0.00 0.00 0.00 74 1012.7
20260502051221 9 298 6.4 16.1 0.00 0.00 0.00 74 1012.8
20260502050715 9 300 6.4 0.0 0.00 0.00 0.00 74 1012.7
20260502050209 9 310 3.2 0.0 0.00 0.00 0.00 74 1012.7
20260502045703 9 307 4.8 0.0 0.00 0.00 0.00 74 1012.8
20260502045157 9 302 8.0 0.0 0.00 0.00 0.00 74 1012.7
20260502044651 9 301 6.4 0.0 0.00 0.00 0.00 74 1012.7
20260502044145 9 305 8.0 17.7 0.00 0.00 0.00 74 1012.8
20260502043639 9 305 8.0 17.7 0.00 0.00 0.00 74 1012.7
20260502043133 9 312 6.4 0.0 0.00 0.00 0.00 74 1012.7
20260502042627 9 305 6.4 0.0 0.00 0.00 0.00 74 1012.7
20260502042121 9 309 4.8 17.7 0.00 0.00 0.00 74 1012.7
20260502041615 9 311 6.4 17.7 0.00 0.00 0.00 74 1012.7
20260502041109 9 310 8.0 17.7 0.00 0.00 0.00 74 1012.7
20260502040603 9 310 4.8 0.0 0.00 0.00 0.00 74 1012.6
20260502040057 9 307 4.8 19.3 0.00 0.00 0.00 74 1012.6
20260502035551 9 305 4.8 25.7 0.00 0.00 0.00 74 1012.6
20260502035045 9 305 9.7 25.7 0.00 0.00 0.00 74 1012.5
20260502034539 9 300 11.3 24.1 0.00 0.00 0.00 74 1012.4
20260502034033 9 297 9.7 20.9 0.00 0.00 0.00 74 1012.4
20260502033527 9 291 11.3 24.1 0.00 0.00 0.00 74 1012.3
20260502033021 9 289 9.7 24.1 0.00 0.00 0.00 74 1012.3
20260502032515 9 283 14.5 22.5 0.00 0.00 0.00 74 1012.2
20260502032009 9 284 17.7 27.4 0.00 0.00 0.00 74 1012.2
20260502031503 9 291 16.1 22.5 0.00 0.00 0.00 74 1012.2
20260502030957 9 286 17.7 25.7 0.00 0.00 0.00 74 1012.1
20260502030451 9 284 19.3 25.7 0.00 0.00 0.00 75 1012.0
20260502025945 9 283 11.3 27.4 0.00 0.00 0.00 75 1012.1
20260502025439 9 280 16.1 30.6 0.00 0.00 0.00 75 1012.0
20260502024933 9 279 16.1 30.6 0.00 0.00 0.00 75 1012.0
20260502024427 9 287 20.9 27.4 0.00 0.00 0.00 75 1011.9
20260502023921 9 278 14.5 29.0 0.00 0.00 0.00 75 1011.9
20260502023415 9 279 14.5 30.6 0.00 0.00 0.00 75 1011.9
20260502022909 9 288 19.3 30.6 0.00 0.00 0.00 75 1011.8
20260502022403 9 285 19.3 29.0 0.00 0.00 0.00 75 1011.8
20260502021857 10 285 17.7 29.0 0.00 0.00 0.00 75 1011.8
20260502021351 10 279 12.9 32.2 0.00 0.00 0.00 75 1011.8
20260502020845 10 273 11.3 32.2 0.00 0.00 0.00 75 1011.8
20260502020339 10 277 14.5 27.4 0.00 0.00 0.00 75 1011.7
20260502015833 10 275 11.3 27.4 0.00 0.00 0.00 75 1011.7
20260502015327 10 281 19.3 27.4 0.00 0.00 0.00 75 1011.7
20260502014821 10 266 8.0 24.1 0.00 0.00 0.00 75 1011.7
20260502014315 10 254 4.8 22.5 0.00 0.00 0.00 75 1011.6
20260502013809 10 251 4.8 22.5 0.00 0.00 0.00 75 1011.7
20260502013303 10 230 3.2 24.1 0.00 0.00 0.00 76 1011.6
20260502012757 10 260 8.0 25.7 0.00 0.00 0.00 76 1011.6
20260502012251 10 273 11.3 25.7 0.00 0.00 0.00 76 1011.6
20260502011745 10 269 8.0 25.7 0.00 0.00 0.00 76 1011.5
20260502011239 10 271 9.7 25.7 0.00 0.00 0.00 76 1011.6
20260502010733 11 275 9.7 20.9 0.00 0.00 0.00 76 1011.5
20260502010227 11 220 3.2 25.7 0.00 0.00 0.00 76 1011.5
20260502005721 11 264 9.7 25.7 0.00 0.00 0.00 76 1011.6
20260502005215 11 234 3.2 25.7 0.00 0.00 0.00 76 1011.5
20260502004709 11 253 6.4 25.7 0.00 0.00 0.00 76 1011.5
20260502004203 11 258 8.0 20.9 0.00 0.00 0.00 76 1011.6
20260502003657 11 133 0.0 0.0 0.00 0.00 0.00 76 1011.7
20260502003151 11 150 1.6 20.9 0.00 0.00 0.00 76 1011.6
20260502002645 11 153 1.6 20.9 0.00 0.00 0.00 76 1011.6
20260502002139 12 227 3.2 22.5 0.00 0.00 0.00 76 1011.6
20260502001633 12 250 4.8 22.5 0.00 0.00 0.00 76 1011.6
20260502001127 12 178 1.6 0.0 0.00 0.00 0.00 76 1011.6
20260502000621 12 192 1.6 0.0 0.00 0.00 0.00 76 1011.6
20260502000115 13 177 1.6 20.9 0.00 0.00 0.00 76 1011.6
20260501235609 13 246 4.8 20.9 0.00 0.00 0.00 76 1011.6
20260501235103 13 223 3.2 19.3 0.00 0.00 0.00 76 1011.7
20260501234557 13 218 3.2 19.3 0.00 0.00 0.00 77 1011.6
20260501234051 13 221 1.6 0.0 0.00 0.00 0.00 76 1011.7
20260501233545 13 198 3.2 0.0 0.00 0.00 0.00 76 1011.6
20260501233039 13 142 1.6 0.0 0.00 0.00 0.00 76 1011.6
20260501232533 13 235 3.2 0.0 0.00 0.00 0.00 76 1011.8
20260501232027 14 130 1.6 0.0 0.00 0.00 0.00 76 1011.8
20260501231521 14 129 1.6 0.0 0.00 0.00 0.00 76 1011.8
20260501231015 14 169 1.6 0.0 0.00 0.00 0.00 76 1011.8
20260501230509 14 129 1.6 0.0 0.00 0.00 0.00 76 1011.8
20260501230003 13 152 1.6 20.9 0.00 0.00 0.00 76 1012.0
20260501225457 13 244 3.2 24.1 0.00 0.00 0.00 76 1012.0
20260501224951 14 252 4.8 24.1 0.00 0.00 0.00 76 1012.1
20260501224445 13 120 1.6 24.1 0.00 0.00 0.00 76 1012.1
20260501223939 13 203 3.2 20.9 0.00 0.00 0.00 76 1012.1
20260501223433 13 249 4.8 24.1 0.00 0.00 0.00 76 1012.2
20260501222927 13 255 8.0 24.1 0.00 0.00 0.00 76 1012.2
20260501222421 14 234 3.2 20.9 0.00 0.00 0.00 76 1012.3
20260501221915 14 229 4.8 22.5 0.00 0.00 0.00 76 1012.4
20260501221409 15 214 3.2 22.5 0.00 0.00 0.00 76 1012.4
20260501220903 15 243 3.2 24.1 0.00 0.00 0.00 76 1012.4
20260501220357 15 268 4.8 22.5 0.00 0.00 0.00 76 1012.4
20260501215851 15 256 4.8 22.5 0.00 0.00 0.00 76 1012.5
20260501215345 15 259 6.4 24.1 0.00 0.00 0.00 76 1012.5
20260501214839 15 258 8.0 24.1 0.00 0.00 0.00 76 1012.5
20260501214333 15 158 1.6 27.4 0.00 0.00 0.00 76 1012.6
20260501213827 15 246 4.8 27.4 0.00 0.00 0.00 76 1012.5
20260501213321 15 196 3.2 27.4 0.00 0.00 0.00 76 1012.6
20260501212815 15 240 4.8 27.4 0.00 0.00 0.00 76 1012.6
20260501212309 15 254 6.4 27.4 0.00 0.00 0.00 75 1012.6
20260501211803 16 250 6.4 25.7 0.00 0.00 0.00 75 1012.6
20260501211257 16 258 6.4 24.1 0.00 0.00 0.00 75 1012.6
20260501210751 16 261 6.4 24.1 0.00 0.00 0.00 75 1012.6
20260501210245 17 259 4.8 22.5 0.00 0.00 0.00 75 1012.6
20260501205739 17 241 3.2 17.7 0.00 0.00 0.00 75 1012.6
20260501205233 17 215 3.2 20.9 0.00 0.00 0.00 75 1012.6
20260501204727 16 265 4.8 20.9 0.00 0.00 0.00 75 1012.7
20260501204221 16 275 8.0 20.9 0.00 0.00 0.00 75 1012.7
20260501203715 16 246 4.8 20.9 0.00 0.00 0.00 74 1012.6
20260501203209 16 249 3.2 20.9 0.00 0.00 0.00 74 1012.7
20260501202703 16 235 3.2 19.3 0.00 0.00 0.00 74 1012.7
20260501202157 17 274 6.4 17.7 0.00 0.00 0.00 74 1012.7
20260501201651 17 264 4.8 19.3 0.00 0.00 0.00 73 1012.8
20260501201145 17 223 1.6 19.3 0.00 0.00 0.00 73 1012.7
20260501200639 17 228 3.2 16.1 0.00 0.00 0.00 73 1012.8
20260501200133 17 273 6.4 0.0 0.00 0.00 0.00 72 1012.7
20260501195627 17 276 4.8 0.0 0.00 0.00 0.00 72 1012.8
20260501195121 16 285 6.4 0.0 0.00 0.00 0.00 72 1012.9
20260501194615 16 286 3.2 0.0 0.00 0.00 0.00 71 1012.9
20260501194109 16 288 4.8 0.0 0.00 0.00 0.00 71 1012.9
20260501193603 16 293 1.6 0.0 0.00 0.00 0.00 71 1013.0
20260501193057 16 278 3.2 0.0 0.00 0.00 0.00 71 1013.0
20260501192551 16 285 1.6 0.0 0.00 0.00 0.00 70 1013.1
20260501192045 16 326 1.6 0.0 0.00 0.00 0.00 70 1013.1
20260501191539 15 347 1.6 0.0 0.00 0.00 0.00 70 1013.1
20260501191033 15 297 3.2 0.0 0.00 0.00 0.00 70 1013.1
20260501190527 15 309 1.6 0.0 0.00 0.00 0.00 69 1013.1
20260501190021 15 299 0.0 0.0 0.00 0.00 0.00 69 1013.2
20260501185515 15 353 1.6 0.0 0.00 0.00 0.00 69 1013.2
20260501185009 15 333 1.6 0.0 0.00 0.00 0.00 69 1013.3
20260501184503 15 355 1.6 0.0 0.00 0.00 0.00 68 1013.3
20260501183957 14 339 3.2 0.0 0.00 0.00 0.00 68 1013.4
20260501183451 14 345 1.6 0.0 0.00 0.00 0.00 68 1013.4
20260501182945 15 68 0.0 0.0 0.00 0.00 0.00 68 1013.4
20260501182439 15 45 1.6 0.0 0.00 0.00 0.00 67 1013.5
20260501181933 14 103 1.6 0.0 0.00 0.00 0.00 67 1013.6
20260501181427 13 86 1.6 0.0 0.00 0.00 0.00 67 1013.6
20260501180921 13 86 1.6 0.0 0.00 0.00 0.00 67 1013.7
20260501180415 13 101 3.2 0.0 0.00 0.00 0.00 66 1013.6
20260501175909 12 83 3.2 0.0 0.00 0.00 0.00 66 1013.7
20260501175403 13 105 1.6 0.0 0.00 0.00 0.00 66 1013.6
20260501174857 12 104 0.0 0.0 0.00 0.00 0.00 66 1013.6
20260501174351 12 120 0.0 0.0 0.00 0.00 0.00 66 1013.6
20260501173845 12 147 0.0 0.0 0.00 0.00 0.00 65 1013.6
20260501173339 12 145 0.0 0.0 0.00 0.00 0.00 65 1013.6